Date,TemperatureHighF,TemperatureAvgF,TemperatureLowF,DewpointHighF,DewpointAvgF,DewpointLowF,HumidityHigh,HumidityAvg,HumidityLow,PressureMaxIn,PressureMinIn,WindSpeedMaxMPH,WindSpeedAvgMPH,GustSpeedMaxMPH,PrecipitationSumIn
2013-11-1,71,64,56,62,58,51,87,78,67,29.87,29.66,14,0,14,0.06
2013-11-2,67,54,46,52,42,35,87,65,42,29.98,29.73,15,1,17,0.02
2013-11-3,61,49,41,39,35,32,77,60,41,30.34,29.98,9,0,11,0.00
2013-11-4,58,44,34,35,32,28,82,63,38,30.50,30.34,4,0,6,0.00
2013-11-5,58,46,35,45,36,28,82,69,52,30.54,30.40,6,0,6,0.02
2013-11-6,63,54,48,52,48,44,86,80,66,30.41,30.12,4,0,5,0.02
2013-11-7,69,51,39,56,42,31,88,72,48,30.14,29.98,10,1,18,0.00
2013-11-8,57,43,32,31,28,25,77,57,30,30.28,30.14,14,0,14,0.00
2013-11-9,59,42,29,34,29,23,79,62,38,30.33,30.16,5,0,6,0.00
2013-11-10,68,50,34,41,33,27,81,56,28,30.23,30.10,11,1,19,0.00
2013-11-11,60,44,31,33,28,23,74,53,33,30.33,30.11,3,0,5,0.00
2013-11-12,60,43,29,38,28,15,74,56,41,30.42,30.02,16,2,19,0.00
2013-11-13,48,34,24,21,17,14,71,52,31,30.48,30.39,6,0,9,0.00
2013-11-14,58,38,23,30,22,16,76,55,30,30.42,30.26,4,0,6,0.00
2013-11-15,56,43,29,41,29,20,81,61,41,30.30,30.17,3,0,5,0.02
2013-11-16,57,51,46,50,46,40,85,82,77,30.26,30.18,0,0,1,0.02
2013-11-17,65,56,52,57,52,48,89,85,73,30.20,29.87,3,0,5,0.35
2013-11-18,68,57,46,55,44,30,90,64,33,30.01,29.83,13,1,18,0.02
2013-11-19,54,46,38,31,28,24,64,49,34,30.24,30.00,8,1,8,0.00
2013-11-20,50,40,32,32,29,25,77,65,46,30.43,30.24,5,0,8,0.00
2013-11-21,53,46,37,43,37,30,84,71,66,30.46,30.35,2,0,2,0.00
2013-11-22,62,54,48,54,49,43,87,82,74,30.38,30.09,2,0,4,0.04
2013-11-23,58,51,38,51,39,21,89,66,40,30.20,30.07,16,2,22,0.02
2013-11-24,40,32,25,22,13,8,59,45,29,30.45,30.20,12,2,15,0.00
2013-11-25,39,31,21,23,15,12,69,52,36,30.48,30.28,3,0,4,0.00
2013-11-26,42,36,33,38,31,23,86,80,64,30.28,29.62,4,0,4,2.23
2013-11-27,42,36,26,39,27,15,87,69,51,30.14,29.54,18,3,26,0.13
2013-11-28,44,31,21,24,19,0,77,62,42,30.41,30.15,5,0,14,0.04
2013-11-29,52,35,24,29,23,18,81,65,39,30.55,30.40,4,0,6,0.00
2013-11-30,44,33,26,26,23,20,79,67,47,30.59,30.33,4,0,14,0.00